STARLINK-2643, 48367

Orbit data source: Space-Track

STARLINK-2643, 48367 is a payload satellite owned by SpaceX/Seattle (US) in LEO that was launched on Tue, 04 May 2021 UTC via an FALCON 9 launch vehicle from the Air Force Eastern Test Range (AFETR). Payload-class satellites include a variety of spacecraft equipped with specific instruments for various scientific and technological missions. These include communications satellites like Starlink; space stations such as the ISS; scientific satellites like the Hubble; Earth observation satellites from companies like Planet Labs, Umbra, and HawkEye 360; GPS; miniature CubeSats for education and research; and military/defense satellites.

Loading next visibility...
Identifier
48367, 2021-038Q
Orbit
LEO
Country
Flag of USUS
Related business
Manufacturer
SpaceX/Seattle
Mission
Operational Commercial Communications
Bus & Motor
STARLINK, Unknown motor
Mass
260 kg wet, ~248 kg dry
Launch date (UTC)
2021-05-04 (5 years ago)
Launch vehicle
FALCON 9
Launch site
Air Force Eastern Test Range (AFETR)
Object type
Payload
Rocket body
Debris
Shape & HBR
Box + 1 Pan, 10.1 m
Radar Cross Section
13.562 m², Large (>1 m²)

Expand to show TLE details & history
Last TLE update: 2 days ago

TLE from 2 days ago
0 STARLINK-2643
1 48367U 21038Q   26171.40815883 -.00001221  00000-0 -27597-4 0  9998
2 48367  53.1582 227.5282 0001071  77.0486 283.0635 15.31692662282991
Epoch: 2026-06-20T09:47Z
TLE epoch observation values (Epoch: 2026-06-20T09:47:44.922Z)
Latitude
-0.00004°
Longitude
171.96778°
Altitude
471.496 km
Speed
7.632 km/s
True Right ascension
15h 10m 06s
True Declination
0° 00' 00"
Sunlit
Object was in full shadow at epoch
Visualization orbit readout
Latitude
Unknown
Longitude
Unknown
Altitude
Unknown
Speed
Unknown
Apparent Right ascension
Unknown
Apparent Declination
Unknown
Sunlit
N/A
Visualization observer readout
Local Sidereal Time
21:23:42
Azimuth
Unknown
Elevation
Unknown
Doppler factor
Unknown
Orbital elements
Apogee altitude
471.752 km
Perigee altitude
470.285 km
Semi-major axis
6,849.156 km
Eccentricity
0.00011
Inclination
53.1582°
RAAN
227.5282°
Arg. of periapsis
77.0486°
True anomaly
283.05154°
Mean anomaly
283.0635°
Eccentric anomaly
283.05752°
Mean motion
3.82902 °/min
Orbital period
94.02 mins
BSTAR
-0.000027597
Loading maneuver chart data...
Computing Atmospheric mass density...

Documentation

Showing up to 5 results
|